Time,TemperatureF,DewpointF,PressureIn,WindDirection,WindDirectionDegrees,WindSpeedMPH,WindSpeedGustMPH,Humidity,HourlyPrecipIn,Conditions,Clouds,dailyrainin,SoftwareType,DateUTC
2013-03-06 00:01:00,33.0,21.0,-100.00,South,178,3.0,5.0,60,0.00,,,-99.99,,2013-03-06 07:01:00,
2013-03-06 00:11:00,32.0,21.0,-100.00,ENE,61,1.0,2.0,64,0.00,,,-99.99,,2013-03-06 07:11:00,
2013-03-06 00:22:00,31.0,21.0,-100.00,SSE,152,3.0,5.0,67,0.00,,,-99.99,,2013-03-06 07:22:00,
2013-03-06 00:31:00,31.0,21.0,-100.00,SSE,152,3.0,5.0,67,0.00,,,-99.99,,2013-03-06 07:31:00,
2013-03-06 00:42:00,34.0,20.0,-100.00,South,188,10.0,13.0,57,0.00,,,-99.99,,2013-03-06 07:42:00,
2013-03-06 00:52:00,34.0,20.0,-100.00,South,188,10.0,13.0,57,0.00,,,-99.99,,2013-03-06 07:52:00,
2013-03-06 01:01:00,34.0,20.0,-100.00,South,188,10.0,13.0,57,0.00,,,-99.99,,2013-03-06 08:01:00,
2013-03-06 01:11:00,34.0,20.0,-100.00,South,184,13.0,15.0,57,0.00,,,-99.99,,2013-03-06 08:11:00,
2013-03-06 01:21:00,33.0,20.0,-100.00,South,179,8.0,11.0,58,0.00,,,-99.99,,2013-03-06 08:21:00,
2013-03-06 01:31:00,33.0,20.0,-100.00,South,179,8.0,11.0,58,0.00,,,-99.99,,2013-03-06 08:31:00,
2013-03-06 01:42:00,34.0,21.0,-100.00,South,179,9.0,13.0,59,0.00,,,-99.99,,2013-03-06 08:42:00,
2013-03-06 01:52:00,34.0,20.0,-100.00,South,184,12.0,14.0,58,0.00,,,-99.99,,2013-03-06 08:52:00,
2013-03-06 02:01:00,34.0,20.0,-100.00,South,184,12.0,14.0,58,0.00,,,-99.99,,2013-03-06 09:01:00,
2013-03-06 02:21:00,33.0,20.0,-100.00,South,175,10.0,13.0,61,0.00,,,-99.99,,2013-03-06 09:21:00,
2013-03-06 02:31:00,33.0,20.0,-100.00,South,175,10.0,13.0,61,0.00,,,-99.99,,2013-03-06 09:31:00,
2013-03-06 02:42:00,33.0,20.0,-100.00,SSW,198,8.0,11.0,61,0.00,,,-99.99,,2013-03-06 09:42:00,
2013-03-06 02:52:00,33.0,21.0,-100.00,SSW,196,9.0,11.0,60,0.00,,,-99.99,,2013-03-06 09:52:00,
2013-03-06 03:01:00,33.0,21.0,-100.00,SSW,196,9.0,11.0,60,0.00,,,-99.99,,2013-03-06 10:01:00,
2013-03-06 03:11:00,33.0,20.0,-100.00,SSW,193,11.0,13.0,58,0.00,,,-99.99,,2013-03-06 10:11:00,
2013-03-06 03:21:00,33.0,20.0,-100.00,SSW,192,11.0,14.0,58,0.00,,,-99.99,,2013-03-06 10:21:00,
2013-03-06 03:31:00,33.0,20.0,-100.00,SSW,192,11.0,14.0,58,0.00,,,-99.99,,2013-03-06 10:31:00,
2013-03-06 03:41:00,34.0,20.0,-100.00,SSW,210,11.0,14.0,57,0.00,,,-99.99,,2013-03-06 10:41:00,
2013-03-06 03:52:00,34.0,21.0,-100.00,WSW,254,3.0,4.0,57,0.00,,,-99.99,,2013-03-06 10:52:00,
2013-03-06 04:01:00,34.0,21.0,-100.00,WSW,254,3.0,4.0,57,0.00,,,-99.99,,2013-03-06 11:01:00,
2013-03-06 04:11:00,35.0,20.0,-100.00,WNW,299,4.0,7.0,54,0.00,,,-99.99,,2013-03-06 11:11:00,
2013-03-06 04:22:00,36.0,20.0,-100.00,North,7,2.0,3.0,53,0.00,,,-99.99,,2013-03-06 11:22:00,
2013-03-06 04:31:00,36.0,20.0,-100.00,North,7,2.0,3.0,53,0.00,,,-99.99,,2013-03-06 11:31:00,
2013-03-06 04:42:00,37.0,20.0,-100.00,North,0,4.0,6.0,51,0.00,,,-99.99,,2013-03-06 11:42:00,
2013-03-06 04:52:00,37.0,20.0,-100.00,North,0,4.0,6.0,51,0.00,,,-99.99,,2013-03-06 11:52:00,
2013-03-06 05:11:00,43.0,21.0,-100.00,SSW,196,12.0,15.0,41,0.00,,,-99.99,,2013-03-06 12:11:00,
2013-03-06 05:21:00,43.0,21.0,-100.00,SSW,196,12.0,15.0,41,0.00,,,-99.99,,2013-03-06 12:21:00,
2013-03-06 05:42:00,41.0,21.0,-100.00,South,182,13.0,19.0,45,0.00,,,-99.99,,2013-03-06 12:42:00,
2013-03-06 05:52:00,39.0,20.0,-100.00,South,188,7.0,12.0,48,0.00,,,-99.99,,2013-03-06 12:52:00,
2013-03-06 06:01:00,39.0,20.0,-100.00,South,188,7.0,12.0,48,0.00,,,-99.99,,2013-03-06 13:01:00,
2013-03-06 06:11:00,39.0,21.0,-100.00,SSW,200,9.0,14.0,47,0.00,,,-99.99,,2013-03-06 13:11:00,
2013-03-06 06:21:00,38.0,21.0,-100.00,SSE,148,3.0,5.0,50,0.00,,,-99.99,,2013-03-06 13:21:00,
2013-03-06 06:31:00,38.0,21.0,-100.00,SSE,148,3.0,5.0,50,0.00,,,-99.99,,2013-03-06 13:31:00,
2013-03-06 06:42:00,38.0,21.0,-100.00,SSE,148,3.0,5.0,50,0.00,,,-99.99,,2013-03-06 13:42:00,
2013-03-06 06:52:00,42.0,22.0,-100.00,South,178,11.0,15.0,44,0.00,,,-99.99,,2013-03-06 13:52:00,
2013-03-06 07:01:00,42.0,22.0,-100.00,South,178,11.0,15.0,44,0.00,,,-99.99,,2013-03-06 14:01:00,
2013-03-06 07:11:00,41.0,22.0,-100.00,South,189,6.0,10.0,46,0.00,,,-99.99,,2013-03-06 14:11:00,
2013-03-06 07:21:00,43.0,22.0,-100.00,South,175,13.0,17.0,44,0.00,,,-99.99,,2013-03-06 14:21:00,
2013-03-06 07:32:00,43.0,22.0,-100.00,South,175,13.0,17.0,44,0.00,,,-99.99,,2013-03-06 14:32:00,
2013-03-06 07:41:00,45.0,23.0,-100.00,SSE,167,16.0,23.0,42,0.00,,,-99.99,,2013-03-06 14:41:00,
2013-03-06 07:52:00,45.0,23.0,-100.00,SSE,150,16.0,20.0,42,0.00,,,-99.99,,2013-03-06 14:52:00,
2013-03-06 08:01:00,45.0,23.0,-100.00,SSE,150,16.0,20.0,42,0.00,,,-99.99,,2013-03-06 15:01:00,
2013-03-06 08:11:00,46.0,24.0,-100.00,South,174,20.0,27.0,42,0.00,,,-99.99,,2013-03-06 15:11:00,
2013-03-06 08:21:00,47.0,25.0,-100.00,South,176,17.0,21.0,42,0.00,,,-99.99,,2013-03-06 15:21:00,
2013-03-06 08:32:00,47.0,25.0,-100.00,South,176,17.0,21.0,42,0.00,,,-99.99,,2013-03-06 15:32:00,
2013-03-06 08:52:00,46.0,25.0,-100.00,South,184,14.0,19.0,43,0.00,,,-99.99,,2013-03-06 15:52:00,
2013-03-06 09:01:00,46.0,25.0,-100.00,South,184,14.0,19.0,43,0.00,,,-99.99,,2013-03-06 16:01:00,
2013-03-06 09:11:00,47.0,26.0,-100.00,South,186,19.0,23.0,42,0.00,,,-99.99,,2013-03-06 16:11:00,
2013-03-06 09:21:00,47.0,26.0,-100.00,South,179,15.0,22.0,43,0.00,,,-99.99,,2013-03-06 16:21:00,
2013-03-06 09:32:00,47.0,26.0,-100.00,South,179,15.0,22.0,43,0.00,,,-99.99,,2013-03-06 16:32:00,
2013-03-06 09:41:00,47.0,26.0,-100.00,South,181,15.0,21.0,44,0.00,,,-99.99,,2013-03-06 16:41:00,
2013-03-06 09:52:00,47.0,27.0,-100.00,South,176,11.0,15.0,45,0.00,,,-99.99,,2013-03-06 16:52:00,
2013-03-06 10:01:00,47.0,27.0,-100.00,South,176,11.0,15.0,45,0.00,,,-99.99,,2013-03-06 17:01:00,
2013-03-06 10:21:00,44.0,28.0,-100.00,NW,311,4.0,8.0,52,0.00,,,-99.99,,2013-03-06 17:21:00,
2013-03-06 10:31:00,44.0,28.0,-100.00,NW,311,4.0,8.0,52,0.00,,,-99.99,,2013-03-06 17:31:00,
2013-03-06 10:42:00,43.0,28.0,-100.00,NNW,344,4.0,6.0,55,0.00,,,-99.99,,2013-03-06 17:42:00,
2013-03-06 10:52:00,43.0,28.0,-100.00,East,93,3.0,4.0,55,0.00,,,-99.99,,2013-03-06 17:52:00,
2013-03-06 11:01:00,43.0,28.0,-100.00,East,93,3.0,4.0,55,0.00,,,-99.99,,2013-03-06 18:01:00,
2013-03-06 11:28:00,44.0,28.0,-100.00,North,8,4.0,6.0,54,0.00,,,-99.99,,2013-03-06 18:28:00,
2013-03-06 11:42:00,43.0,29.0,-100.00,WSW,247,3.0,4.0,56,0.00,,,-99.99,,2013-03-06 18:42:00,
2013-03-06 11:52:00,45.0,29.0,-100.00,WSW,257,2.0,3.0,51,0.00,,,-99.99,,2013-03-06 18:52:00,
2013-03-06 12:02:00,45.0,29.0,-100.00,WSW,257,2.0,3.0,51,0.00,,,-99.99,,2013-03-06 19:02:00,
2013-03-06 12:11:00,46.0,29.0,-100.00,NE,34,4.0,6.0,51,0.00,,,-99.99,,2013-03-06 19:11:00,
2013-03-06 12:21:00,50.0,29.0,-100.00,SW,232,9.0,14.0,44,0.00,,,-99.99,,2013-03-06 19:21:00,
2013-03-06 12:31:00,50.0,29.0,-100.00,SW,232,9.0,14.0,44,0.00,,,-99.99,,2013-03-06 19:31:00,
2013-03-06 12:52:00,52.0,30.0,-100.00,SW,222,11.0,19.0,42,0.00,,,-99.99,,2013-03-06 19:52:00,
2013-03-06 13:01:00,52.0,30.0,-100.00,SW,222,11.0,19.0,42,0.00,,,-99.99,,2013-03-06 20:01:00,
2013-03-06 13:11:00,51.0,30.0,-100.00,SSW,206,19.0,26.0,44,0.00,,,-99.99,,2013-03-06 20:11:00,
2013-03-06 13:22:00,51.0,30.0,-100.00,SSW,206,19.0,26.0,44,0.00,,,-99.99,,2013-03-06 20:22:00,
2013-03-06 13:32:00,51.0,30.0,-100.00,SSW,206,19.0,26.0,44,0.00,,,-99.99,,2013-03-06 20:32:00,
2013-03-06 13:42:00,52.0,30.0,-100.00,SSW,213,19.0,24.0,42,0.00,,,-99.99,,2013-03-06 20:42:00,
2013-03-06 13:52:00,52.0,30.0,-100.00,SSW,209,20.0,30.0,43,0.00,,,-99.99,,2013-03-06 20:52:00,
2013-03-06 14:02:00,52.0,30.0,-100.00,SSW,209,20.0,30.0,43,0.00,,,-99.99,,2013-03-06 21:02:00,
2013-03-06 14:11:00,52.0,30.0,-100.00,SSW,209,20.0,30.0,43,0.00,,,-99.99,,2013-03-06 21:11:00,
2013-03-06 14:22:00,52.0,31.0,-100.00,SSW,198,19.0,27.0,43,0.00,,,-99.99,,2013-03-06 21:22:00,
2013-03-06 14:31:00,52.0,31.0,-100.00,SSW,198,19.0,27.0,43,0.00,,,-99.99,,2013-03-06 21:31:00,
2013-03-06 14:42:00,53.0,31.0,-100.00,SW,224,16.0,24.0,42,0.00,,,-99.99,,2013-03-06 21:42:00,
2013-03-06 14:52:00,52.0,31.0,-100.00,SSW,210,21.0,29.0,45,0.00,,,-99.99,,2013-03-06 21:52:00,
2013-03-06 15:01:00,52.0,31.0,-100.00,SSW,210,21.0,29.0,45,0.00,,,-99.99,,2013-03-06 22:01:00,
2013-03-06 15:11:00,51.0,32.0,-100.00,SSW,208,17.0,22.0,47,0.00,,,-99.99,,2013-03-06 22:11:00,
2013-03-06 15:21:00,52.0,31.0,-100.00,SSW,205,20.0,27.0,45,0.00,,,-99.99,,2013-03-06 22:21:00,
2013-03-06 15:31:00,52.0,31.0,-100.00,SSW,205,20.0,27.0,45,0.00,,,-99.99,,2013-03-06 22:31:00,
2013-03-06 15:41:00,52.0,31.0,-100.00,SW,215,15.0,24.0,44,0.00,,,-99.99,,2013-03-06 22:41:00,
2013-03-06 15:52:00,52.0,31.0,-100.00,SW,226,11.0,18.0,44,0.00,,,-99.99,,2013-03-06 22:52:00,
2013-03-06 16:01:00,52.0,31.0,-100.00,SW,226,11.0,18.0,44,0.00,,,-99.99,,2013-03-06 23:01:00,
2013-03-06 16:11:00,46.0,35.0,-100.00,NNW,329,17.0,24.0,65,0.00,,,-99.99,,2013-03-06 23:11:00,
2013-03-06 16:21:00,42.0,36.0,-100.00,NW,311,16.0,24.0,79,0.16,,,-99.99,,2013-03-06 23:21:00,
2013-03-06 16:31:00,42.0,36.0,-100.00,NW,311,16.0,24.0,79,0.16,,,-99.99,,2013-03-06 23:31:00,
2013-03-06 16:41:00,38.0,36.0,-100.00,WNW,288,6.0,9.0,92,0.04,,,-99.99,,2013-03-06 23:41:00,
2013-03-06 16:52:00,38.0,36.0,-100.00,WNW,288,6.0,9.0,92,0.04,,,-99.99,,2013-03-06 23:52:00,
2013-03-06 17:01:00,38.0,36.0,-100.00,WNW,288,6.0,9.0,92,0.04,,,-99.99,,2013-03-07 00:01:00,
2013-03-06 17:11:00,37.0,35.0,-100.00,SSW,213,1.0,3.0,94,0.08,,,-99.99,,2013-03-07 00:11:00,
2013-03-06 17:21:00,36.0,35.0,-100.00,ENE,62,1.0,2.0,95,0.08,,,-99.99,,2013-03-07 00:21:00,
2013-03-06 17:32:00,36.0,35.0,-100.00,ENE,62,1.0,2.0,95,0.08,,,-99.99,,2013-03-07 00:32:00,
2013-03-06 17:41:00,35.0,34.0,-100.00,NNE,31,3.0,4.0,96,0.08,,,-99.99,,2013-03-07 00:41:00,
2013-03-06 17:52:00,35.0,34.0,-100.00,NE,35,3.0,4.0,97,0.16,,,-99.99,,2013-03-07 00:52:00,
2013-03-06 18:01:00,35.0,34.0,-100.00,NE,35,3.0,4.0,97,0.16,,,-99.99,,2013-03-07 01:01:00,
2013-03-06 18:11:00,35.0,34.0,-100.00,ENE,68,3.0,3.0,97,0.12,,,-99.99,,2013-03-07 01:11:00,
2013-03-06 18:21:00,35.0,34.0,-100.00,SE,133,5.0,6.0,98,0.00,,,-99.99,,2013-03-07 01:21:00,
2013-03-06 18:31:00,35.0,34.0,-100.00,SE,133,5.0,6.0,98,0.00,,,-99.99,,2013-03-07 01:31:00,
2013-03-06 18:41:00,35.0,35.0,-100.00,SE,144,4.0,7.0,98,0.00,,,-99.99,,2013-03-07 01:41:00,
2013-03-06 18:52:00,36.0,35.0,-100.00,NNW,333,4.0,7.0,98,0.04,,,-99.99,,2013-03-07 01:52:00,
2013-03-06 19:00:00,36.0,35.0,-100.00,ENE,61,2.0,3.0,98,0.04,,,-99.99,,2013-03-07 02:00:00,
2013-03-06 19:01:00,36.0,35.0,-100.00,NNW,333,4.0,7.0,98,0.04,,,-99.99,,2013-03-07 02:01:00,
2013-03-06 19:11:00,36.0,35.0,-100.00,NE,56,3.0,5.0,98,0.12,,,-99.99,,2013-03-07 02:11:00,
2013-03-06 19:21:00,36.0,35.0,-100.00,NE,56,3.0,5.0,98,0.12,,,-99.99,,2013-03-07 02:21:00,
2013-03-06 19:30:00,36.0,35.0,-100.00,WSW,239,5.0,9.0,96,0.12,,,-99.99,,2013-03-07 02:30:00,
2013-03-06 19:31:00,36.0,35.0,-100.00,NE,56,3.0,5.0,98,0.12,,,-99.99,,2013-03-07 02:31:00,
2013-03-06 19:41:00,36.0,35.0,-100.00,NE,56,3.0,5.0,98,0.12,,,-99.99,,2013-03-07 02:41:00,
2013-03-06 20:00:00,36.0,34.0,-100.00,WSW,258,3.0,6.0,94,0.04,,,-99.99,,2013-03-07 03:00:00,
2013-03-06 20:11:00,36.0,35.0,-100.00,WSW,239,5.0,9.0,96,0.12,,,-99.99,,2013-03-07 03:11:00,
2013-03-06 20:21:00,36.0,35.0,-100.00,WSW,239,5.0,9.0,96,0.12,,,-99.99,,2013-03-07 03:21:00,
2013-03-06 20:42:00,36.0,34.0,-100.00,WSW,258,3.0,6.0,94,0.04,,,-99.99,,2013-03-07 03:42:00,
2013-03-06 20:52:00,36.0,34.0,-100.00,WSW,258,3.0,6.0,94,0.04,,,-99.99,,2013-03-07 03:52:00,
2013-03-06 21:00:00,36.0,34.0,-100.00,SSW,192,7.0,9.0,91,0.00,,,-99.99,,2013-03-07 04:00:00,
2013-03-06 21:21:00,35.0,34.0,-100.00,SE,138,9.0,12.0,95,0.00,,,-99.99,,2013-03-07 04:21:00,
2013-03-06 21:30:00,37.0,31.0,-100.00,SSW,198,6.0,9.0,80,0.00,,,-99.99,,2013-03-07 04:30:00,
2013-03-06 21:31:00,35.0,34.0,-100.00,SE,138,9.0,12.0,95,0.00,,,-99.99,,2013-03-07 04:31:00,
2013-03-06 21:41:00,36.0,34.0,-100.00,SSW,192,7.0,9.0,91,0.00,,,-99.99,,2013-03-07 04:41:00,
2013-03-06 21:52:00,36.0,34.0,-100.00,SSW,192,7.0,9.0,91,0.00,,,-99.99,,2013-03-07 04:52:00,
2013-03-06 22:12:00,37.0,31.0,-100.00,SSW,198,6.0,9.0,80,0.00,,,-99.99,,2013-03-07 05:12:00,
2013-03-06 22:22:00,37.0,31.0,-100.00,SSW,198,6.0,9.0,80,0.00,,,-99.99,,2013-03-07 05:22:00,
2013-03-06 22:42:00,38.0,27.0,-100.00,West,263,6.0,12.0,65,0.00,,,-99.99,,2013-03-07 05:42:00,
2013-03-06 22:52:00,38.0,28.0,-100.00,WSW,241,4.0,7.0,66,0.00,,,-99.99,,2013-03-07 05:52:00,
2013-03-06 23:01:00,38.0,28.0,-100.00,WSW,241,4.0,7.0,66,0.00,,,-99.99,,2013-03-07 06:01:00,
2013-03-06 23:11:00,38.0,28.0,-100.00,WSW,241,4.0,7.0,66,0.00,,,-99.99,,2013-03-07 06:11:00,
2013-03-06 23:52:00,35.0,27.0,-100.00,SE,145,7.0,9.0,71,0.00,,,-99.99,,2013-03-07 06:52:00,